Current Conditions for Foresthill, CA. Clear skies, Dry   
Visibility: 10 miles
Space WX Alerts: CONTINUED ALERT:  Electron 2MeV Integral Flux exceeded 1000pfu ( Latest Alert ) - Issue Time: 2018 Apr 18 1430 UTC

  Summary / Temperature 

Current Temperature
36.9°F
2.7°C
(24/hr Ago)
40.5°F
(Apparent temp)
33.5°F
Cool
Wind Chill Graphs
36.9°F 
Wind Chill-Avg
37.3°F 2.9°C
 --- Virtual Temp: 38.2°F ---

 Temp Rate:

 24/hr Difference:

 Avg Running Temp:

 Todays High:

 Todays Low:

 Y-days High:

 Y-days Low:

 Todays WChill:

 Y-days WChill:

 Evapotranspiration:

-0.5°F/hr 

-3.6°F

37.3°F

39.8°F 12:00am

36.9°F 4:47am

49.7°F 2:09pm

39.7°F 10:50pm

35.0°F 4:27am

33.2°F 3:05am

0.000 in

115' Above Ground

 Temperature:

 6'AGL VRS 115'AGL:

 Avg Running Temp:

 Humidity:

 Todays High:

 Todays Low:

 Y-days High:

 Y-days Low:

42.0°F 

+5.1°F

42.1°F

68% 

43.0°F 12:00am

41.0°F 2:47am

50.0°F 12:58pm

41.0°F 12:51am

Temp & Humidity Graphs

  Wind 

Wind Speed

 Calm

Gusting to

 None

Calm

339°  

Calm

 Avg speed:

 Wind Run:

 Peak Gust:

Calm 

0.0 miles

  3.0 mph 1:15am

  Almanac  

Moon age: 3 days,16 hours,8 minutes,15%

Waxing Crescent
14%
Illuminated
3 days in cycle

 Moonrise:

 Moonset:

 Sunrise:

 Sunset:

 Solar Noon:

9:13am

11:57pm

6:18am

7:42pm

1:03pm

2min 24s more daylight tomorrow 

  Solar Radiation 

(Current Solar)
  No Sun Light
(Todays High)
 None@12:00am

Rain

 Rain Today:

 Rain Rate (/hr):

 Rain last hour:

 Rain Yesterday:

 This Month:

 Season Total:

1 Day Since Last Rain Day

0.00 in

0.000 in

0.00 in

0.00 in

4.71 in

41.88 in

Updated Time

Updated: 4/19/18  4:58am

(Updated  sec ago)

Humidity & Barometer

 Humidity:

 Wetbulb:

 Dew Point:

 Barometer:

87% 

35.5°F 

33.4°F 

30.043 inHg 

 Baro Trend:  Steady 
Northern Calif
Preparedness
Fire 
Level 

    UV Index  

(Current UV)
0.0  None
(Todays High) @ 12:00am
0.0   None

National Weather Service Forecast

Overnight

Overnight: Mostly Cloudy
Mostly Cloudy
Thursday

Thursday: Slight Chance Rain Showers
Slight Chance Rain Showers
Thursday
Night
Thursday Night: Mostly Clear
Mostly Clear
Friday

Friday: Sunny
Sunny
Friday
Night
Friday Night: Mostly Clear
Mostly Clear
Saturday

Saturday: Sunny
Sunny
Lo 36 °F Hi 58 °F Lo 43 °F Hi 70 °F Lo 47 °F Hi 74 °F

Foresthill Probe 2 Stats  
Foresthill Probe 2: is located on Thomas Street
at 3000 feet. The main Foresthill Weather site
is located on Melody ln at the 2860 foot elevation

Calm
39.0°F
3.9°C
Temp Rate:
0°F
Calm
Gusting to
None
(Humidity)
90%
Calm
271°  
Updated: 19/04/18 - 04:54:14
 Todays High: 39.0°F 00:00
 Todays Low: 39.0°F 00:00
 Rain Today: 0.00 in
 Season Total: 44.24 in

Foresthill Wx: Monthly,Yearly, Highs and Lows 

Foresthill  
This Weather Data is coming from the main Foresthill
Weather site located on Melody ln at the 2860 foot
elevation
Not Foresthill Probe 2
Weather Data
Month
  High
Month
  Low
Year
High
Year
Low
Temp 71.2°F
4/1/18
31.8°F
4/17/18
73.4°F
3/31/18
21.9°F
2/23/18
Humidity 100%
4/12/18
16%
4/4/18
100%
1/8/18
15%
2/10/18
Heat Index 70.6°F
4/9/18
38.1°F
4/13/18
72.6°F
3/31/18
27.1°F
2/20/18
Wind Chill 71.2°F
4/1/18
25.0°F
4/17/18
73.4°F
3/31/18
9.2°F
2/23/18
Wind Gust 28 mph
4/6/18
0 mph
4/1/18
43 mph
3/1/18
0 mph
1/1/18
Barometer 30.46 in
4/13/18
29.82 in
4/15/18
30.55 in
1/27/18
29.63 in
1/9/18
ET 0.16 in
4/1/18
0.00 in
4/1/18
0.16 in
4/1/18
0.00 in
1/1/18
Dew Point 55.4°F
4/9/18
18.7°F
4/4/18
55.4°F
4/9/18
7.6°F
2/11/18
Pacific Satellite US Radar Satellite Imagery Sacramento,CA.  (click to enlarge)
NWS Weather Forecast - Summary
Updated: Wednesday, April 18, 2018 - 2:46pm PDT
Current Interstate Highway Conditions for I-80 & US-50

[I 80: IN THE SAN FRANCISCO BAY AREA - SOLANO CO]
no traffic restrictions are reported for this area.

[I 80: IN THE NORTHERN CALIFORNIA AREA & SIERRA NEVADA]
no traffic restrictions are reported for this area.

[US 50: IN THE SACRAMENTO VALLEY & THE LAKE TAHOE BASIN]
  1-way controlled traffic at various locations from 1. 5 mi west of kyburz to 3 mi east of kyburz (EL DORADO CO) from 7:00am to 5:00pm wednesday thru friday thru 4/20/18 - due to construction
  1-way controlled traffic at various locations from 3. 5 mi east of twin bridges to 4. 2 mi east of twin bridges /at alpine ave/ (EL DORADO CO) from 7:00am to 6:00pm wednesday thru friday thru 4/20/18 - due to construction
NWS Weather Forecast: Overnight and Thursday (Updated: Thu, 19-Apr-2018 3:02am PDT)
Overnight

Overnight: Mostly Cloudy
Mostly Cloudy

Lo 36 °F
NWS forecast: Mostly cloudy. Low around 36, with temperatures rising to around 39 overnight. Northeast wind around 5 mph.
Thursday

Thursday: Slight Chance Rain Showers
Slight Chance Rain Showers

Hi 58 °F
NWS forecast: A slight chance of rain showers between 11am and 5pm. Mostly sunny, with a high near 58. Northwest wind 3 to 9 mph. Chance of precipitation is 20%.
YR.NO 10 Day Weather forecast
Last update: 04/19/2018 @ 00:33
Next update: 04/19/2018 @ 13:00
Provided by: 22
      Temperature Precipitation Pressure Wind  
Today
04/19/2018
03:00 06:00 30°F   30.00 inHg Light breeze from east-northeast 6 mph
  06:00 12:00 28°F   30.01 inHg Light breeze from east-northeast 6 mph
  12:00 18:00 52°F   30.01 inHg Gentle breeze from west-northwest 9 mph
  18:00 00:00 54°F   30.01 inHg Light breeze from west-northwest 6 mph
    (Click to enlarge)
meteogram

    Forecast for next 9 days

      Temperature Precip Pressure Wind  
Friday
04/20/2018
00:00 06:00 36°F   30.08 inHg Light breeze from east-northeast 6 mph
  06:00 12:00 34°F   30.09 inHg Gentle breeze from east-northeast 9 mph
  12:00 18:00 64°F   30.10 inHg Light breeze from west 6 mph
  18:00 00:00 63°F   30.06 inHg Light air from west-northwest 2 mph
      Temperature Precip Pressure Wind  
Saturday
04/21/2018
00:00 06:00 43°F   30.12 inHg Light breeze from east-northeast 6 mph
  06:00 12:00 37°F   30.09 inHg Light breeze from east-northeast 5 mph
  12:00 18:00 68°F   30.08 inHg Light breeze from west 5 mph
  17:00 23:00 68°F   30.00 inHg Light breeze from west-southwest 4 mph
  23:00 05:00 46°F   30.02 inHg Light breeze from east-northeast 5 mph
      Temperature Precip Pressure Wind  
Sunday
04/22/2018
05:00 11:00 43°F   29.95 inHg Light breeze from east-northeast 6 mph
  11:00 17:00 70°F   29.93 inHg Light breeze from southwest 4 mph
  17:00 23:00 70°F   29.86 inHg Light breeze from southwest 5 mph
  23:00 05:00 48°F   29.90 inHg Light breeze from east-northeast 7 mph
      Temperature Precip Pressure Wind  
Monday
04/23/2018
05:00 11:00 43°F   29.89 inHg Light breeze from east-northeast 7 mph
  11:00 17:00 70°F   29.92 inHg Light breeze from southwest 4 mph
  17:00 23:00 68°F   29.91 inHg Light breeze from southwest 4 mph
  23:00 05:00 50°F   29.97 inHg Light air from east-northeast 3 mph
      Temperature Precip Pressure Wind  
Tuesday
04/24/2018
05:00 11:00 45°F   29.95 inHg Light breeze from east-northeast 6 mph
  11:00 17:00 68°F   29.97 inHg Light breeze from west-southwest 5 mph
  17:00 23:00 66°F   29.96 inHg Light breeze from southwest 4 mph
  23:00 05:00 48°F   29.99 inHg Light air from east-northeast 3 mph
      Temperature Precip Pressure Wind  
Wednesday
04/25/2018
05:00 11:00 43°F   29.95 inHg Light breeze from east-northeast 6 mph
  11:00 17:00 70°F   29.96 inHg Light breeze from southwest 4 mph
  17:00 23:00 70°F   29.91 inHg Light breeze from southwest 5 mph
  23:00 05:00 48°F   29.93 inHg Light air from east-northeast 2 mph
      Temperature Precip Pressure Wind  
Thursday
04/26/2018
05:00 11:00 43°F   29.86 inHg Light breeze from east-northeast 4 mph
  11:00 17:00 61°F   29.92 inHg Light breeze from southwest 4 mph
  17:00 23:00 63°F   29.86 inHg Light air from west-southwest 3 mph
  23:00 05:00 50°F 0.04 in 29.92 inHg Light air from east-southeast 2 mph
      Temperature Precip Pressure Wind  
Friday
04/27/2018
05:00 11:00 45°F   29.91 inHg Light air from east 2 mph
  11:00 17:00 59°F   29.92 inHg Light breeze from west 6 mph
  17:00 23:00 63°F   29.86 inHg Light breeze from west-southwest 5 mph
  23:00 05:00 50°F   29.93 inHg Light air from east-northeast 1 mph
      Temperature Precip Pressure Wind  
Saturday
04/28/2018
05:00 11:00 41°F   29.86 inHg Light breeze from east-northeast 6 mph
  11:00 17:00 68°F   29.87 inHg Light breeze from west-southwest 6 mph

NOAA Local Storm Report
MUSKEGON   ( More )
DATE
04/18/2018
TIME
11:22 PM
COUNTY
MUSKEGON
STATE
MI
GEOGRAPHIC
43.23N 86.26W
SOURCE
TRAINED SPOTTER
SNOW MEASURED AT 2.5 INCH
snow since 700 pm edt. Still snowing.
How Close Are We To this Month's Temperature Record ?
Updated Thursday, Apr 19, 2018- 4:50:00 AM

Current Temperature: 36.9°F

April's High: Temperature Record 83.2°F - Set on Sun, Apr 22, 2012 - 2:12:00 PM
We are currently 46.3°F Less than this Month's record High

April's Low: Temperature Record 31.4°F - Set on Thu, Apr 5, 2012 - 6:23:00 AM
We are currently 5.5°F More than this Month's record Low

Weather History For Thursday, April 19, 2018


On this Day - In Weather History ...
Data courtesy of weatherforyou.com
powered by Cumulus v1.9.3 (1059)
Ambient Weather VWS v14.00
Top Contact Website Map Copyright © 2007 - 2018 Foresthillweather.com Never base important decisions on this or any weather information obtained from the Internet